This demonstration page uses our WeatherBlox Daily Observations layout. Learn more.

Left ArrowRight Arrow

Hourly Observations for May 14, 2021

Temp ( °F °C ) Dew Point ( °F °C ) Humidity (%) Winds ( mph kmh ) Pressure ( in mb ) Visibility ( mi km ) Precip ( " mm )
12:53 am 00:53 Clear 45 7.2 44 6.7 97 97 NNW 3 6 30.10 1019 10 16 0.00 0.00
1:53 am 01:53 Mostly Clear 43 6.1 42 5.6 97 97 Calm 30.11 1020 10 16 0.00 0.00
2:53 am 02:53 Clear 41 5 40 4.4 96 96 SW 8 13 30.11 1020 10 16 0.00 0.00
3:53 am 03:53 Clear 39 3.9 38 3.3 96 96 W 6 9 30.13 1020 10 16 0.00 0.00
4:21 am 04:21 Mostly Clear 39 3.9 38 3.3 96 96 W 5 7 30.18 1022 9 14 0.00 0.00
4:53 am 04:53 Partly Cloudy 39 3.9 38 3.3 96 96 SW 5 7 30.13 1020 8 13 0.00 0.00
5:53 am 05:53 Sunny with Mist and Fog 36 2.2 35 1.7 97 97 W 5 7 30.14 1021 3 4 0.00 0.00
6:02 am 06:02 Sunny with Mist and Fog 36 2.2 35 1.7 97 97 WSW 6 9 30.20 1023 5 8 0.00 0.00
6:35 am 06:35 Partly Cloudy with Mist and Fog 37 2.8 36 2.2 96 96 NNW 5 7 30.20 1023 5 8 0.00 0.00
6:40 am 06:40 Mostly Cloudy with Mist and Fog 38 3.3 37 2.8 97 97 NNW 3 6 30.20 1023 2 3 0.00 0.00
6:42 am 06:42 Mostly Cloudy with Mist and Fog 38 3.3 37 2.8 97 97 Calm 30.20 1023 1 1 0.00 0.00
6:49 am 06:49 Mostly Cloudy with Fog 39 4 37 3 93 93 Calm 30.19 1022 N/A 0.00 0.00
6:50 am 06:50 Mostly Cloudy with Fog 39 3.9 39 3.9 100 100 Calm 30.14 1021 N/A 0.00 0.00
7:18 am 07:18 Mostly Cloudy with Fog 39 4 39 4 100 100 SW 3 6 30.19 1022 0 0 0.00 0.00
7:26 am 07:26 Mostly Cloudy with Mist and Fog 41 5 41 5 100 100 SW 3 6 30.18 1022 1 2 0.00 0.00
7:28 am 07:28 Mostly Cloudy with Mist and Fog 41 5 41 5 100 100 SW 3 6 30.18 1022 4 6 0.00 0.00
7:49 am 07:49 Partly Cloudy 43 6 43 6 100 100 W 3 6 30.18 1022 10 16 0.00 0.00
7:53 am 07:53 Partly Cloudy 43 6.1 42 5.6 97 97 WSW 3 6 30.16 1021 10 16 0.00 0.00
8:53 am 08:53 Mostly Sunny 49 9.4 45 7.2 86 86 W 3 6 30.16 1021 10 16 0.00 0.00
9:53 am 09:53 Sunny 54 12.2 47 8.3 77 77 WNW 3 6 30.15 1021 10 16 0.00 0.00
10:53 am 10:53 Sunny 58 14.4 45 7.2 62 62 SE 5 7 30.14 1021 10 16 0.00 0.00
11:53 am 11:53 Sunny 61 16.1 43 6.1 52 52 ESE 5 7 30.13 1020 10 16 0.00 0.00
12:53 pm 12:53 Mostly Sunny 64 17.8 43 6.1 46 46 N 6 9 30.11 1020 10 16 0.00 0.00
1:53 pm 13:53 Mostly Sunny 66 18.9 42 5.6 42 42 WNW 3 6 30.09 1019 10 16 0.00 0.00
2:53 pm 14:53 Partly Cloudy 68 20 40 4.4 36 36 ENE 5 7 30.08 1019 10 16 0.00 0.00
3:53 pm 15:53 Mostly Sunny 66 18.9 39 3.9 37 37 VRB 5 7 30.07 1018 10 16 0.00 0.00
4:53 pm 16:53 Sunny 69 20.6 35 1.7 29 29 NE 6 9 30.05 1018 10 16 0.00 0.00
5:53 pm 17:53 Mostly Sunny 68 20 37 2.8 32 32 ESE 6 9 30.05 1018 10 16 0.00 0.00
6:53 pm 18:53 Sunny 68 20 37 2.8 32 32 E 5 7 30.04 1017 10 16 0.00 0.00
7:53 pm 19:53 Mostly Sunny 66 18.9 39 3.9 37 37 ESE 7 11 30.04 1017 10 16 0.00 0.00
8:53 pm 20:53 Clear 60 15.6 42 5.6 52 52 ESE 6 9 30.04 1017 10 16 0.00 0.00
9:53 pm 21:53 Clear 56 13.3 42 5.6 60 60 ESE 3 6 30.04 1017 10 16 0.00 0.00
10:53 pm 22:53 Clear 50 10 40 4.4 68 68 S 3 6 30.04 1017 10 16 0.00 0.00
11:53 pm 23:53 Clear 54 12.2 39 3.9 57 57 SE 7 11 30.03 1017 10 16 0.00 0.00

Powered by AerisWeather